Location: Julian California
(33.0790°N, 116.6010°W)
Time: 15:48:48
(UTC-07:00)

Cosmos 1697 Rocket - Pass Details

Date: 25 March 2019
Orbit: 834 x 842 km, 71.0° (Epoch: 20 April)

Event Time Altitude Azimuth Distance (km) Brightness Sun altitude
Rises 04:28:11 0° 352° (N) 3,387 6.0 -28.4°
Reaches altitude 10° 04:31:03 10° 5° (N) 2,448 5.4 -27.9°
Maximum altitude 04:35:41 26° 61° (ENE) 1,594 4.8 -27.0°
Drops below altitude 10° 04:40:16 10° 117° (ESE) 2,434 5.6 -26.1°
Sets 04:43:05 0° 130° (SE) 3,364 6.2 -25.5°
